Location: Fabas
(43.3145°N, 0.8945°E)
Time: 07:15:25
(UTC+00:00)

Daily predictions for brighter satellites

Satellite Brightness Start Highest point End
(mag) Time Altitude Azimuth Time Altitude Azimuth Time Altitude Azimuth
Lacrosse 5 rocket 2.6 17:49:50 10° WSW 17:53:58 40° NNW 17:58:17 10° NE
Cosmos 1992 Rocket 4.2 17:49:45 10° S 17:54:47 51° ESE 17:59:51 10° NNE
STARLINK-42 4.2 17:54:02 10° SSW 17:56:52 27° SE 17:59:43 10° ENE
Cosmos 2082 Rocket 2.2 17:52:54 10° NNW 17:58:34 80° ENE 18:04:14 10° SSE
Cosmos 1486 Rocket 4.0 17:54:02 10° NNW 17:59:17 89° ENE 18:04:32 10° SSE
STARLINK-80 4.0 17:57:02 10° WSW 18:00:47 54° NNW 18:04:33 10° NE
ATLAS 5 CENTAUR R/B 4.0 17:55:45 10° NW 18:01:19 41° WSW 18:07:34 10° S
FengYun 1-2 T 4.3 17:56:30 10° SSE 18:02:09 83° ENE 18:07:49 10° NNW
Cosmos 1743 Rocket 3.8 17:59:00 10° SSW 18:03:23 75° W 18:07:46 10° N
Cosmos 292 Rocket 4.0 18:00:14 10° S 18:04:54 52° ESE 18:09:34 10° NNE
Cosmos 1238 Rocket 4.1 18:02:06 10° SSE 18:07:55 55° E 18:14:21 10° NNE
Cosmos 1354 Rocket 4.1 18:05:17 10° NNW 18:10:31 57° ENE 18:15:42 10° SE
H-2A R/B 3.6 18:07:14 10° E 18:10:34 17° ENE 18:13:57 10° NNE
Meteor 2-3 Rocket 4.2 18:05:12 10° SSW 18:10:45 68° WNW 18:16:23 10° N
Cosmos 1833 Rocket 3.8 18:08:46 10° NW 18:14:12 50° WSW 18:19:37 10° S
Cosmos 2016 Rocket 4.0 18:10:20 10° S 18:16:17 60° E 18:22:17 10° NNE
STARLINK-65 4.5 18:14:25 10° SSW 18:17:59 31° SE 18:20:57 13° ENE
SL-27 R/B 4.2 18:17:43 10° NNE 18:19:28 13° ENE 18:19:54 13° ENE
STARLINK-53 4.4 18:16:05 10° SSW 18:19:43 33° SE 18:22:40 14° ENE
STARLINK-64 3.8 18:17:21 10° SSW 18:20:45 42° SE 18:23:30 15° ENE
Ariane Rocket 3.7 18:22:23 10° SE 18:26:50 31° ENE 18:31:19 10° N
YAOGAN 1 2.5 18:23:18 10° SSE 18:27:36 80° ENE 18:31:58 10° N
CSL-04 Rocket 3.7 18:23:43 10° SSE 18:29:15 74° ENE 18:34:46 10° N
Cosmos 921 Rocket 3.9 18:26:20 10° SSE 18:30:12 29° E 18:34:06 10° NE
STARLINK-1010 4.4 18:28:01 10° S 18:30:19 20° SE 18:31:07 18° ESE
STARLINK-61 3.4 18:27:06 10° SW 18:30:58 72° SE 18:33:58 16° ENE
USA 234 4.4 18:27:26 11° ENE 18:32:30 28° N 18:37:53 10° NW
SKYMED 2 4.4 18:29:14 10° N 18:33:28 53° WNW 18:37:41 10° SSW
USA 229 DEB 3.9 18:27:22 10° S 18:33:32 48° ESE 18:40:00 10° NE
USA 229 3.9 18:27:29 10° S 18:33:39 48° ESE 18:40:06 10° NE
Cosmos 2278 Rocket 4.0 18:29:03 10° WSW 18:33:59 30° NW 18:38:57 10° N
Cosmos 2233 Rocket 4.3 18:28:36 10° SSE 18:34:18 42° E 18:40:03 10° NNE
STARLINK-1008 4.3 18:32:25 10° S 18:34:56 23° SE 18:35:42 21° ESE
STARLINK-1016 4.2 18:33:13 10° S 18:35:42 23° SE 18:36:22 21° ESE
ADEOS Rocket 3.6 18:28:21 10° NNE 18:36:02 62° E 18:43:40 10° S
STARLINK-1025 4.2 18:33:42 10° S 18:36:12 23° SE 18:36:52 21° ESE
ARGOS 4.2 18:32:57 13° ESE 18:36:24 24° ENE 18:40:39 10° NNE
Cosmos 968 Rocket 4.0 18:32:03 10° NNW 18:37:11 63° WSW 18:42:20 10° S
STARLINK-1017 4.2 18:34:39 10° S 18:37:11 24° SE 18:37:51 22° ESE
NOAA 11 4.2 18:32:44 10° SSE 18:38:12 85° WSW 18:43:40 10° NNW
Cosmos 1633 Rocket 3.3 18:34:36 10° SSE 18:38:42 44° E 18:42:50 10° NNE
STARLINK-1028 4.1 18:36:49 10° SSW 18:39:25 25° SE 18:40:00 23° ESE
CSL-04 Debris 4.2 18:34:03 10° SSE 18:39:29 89° WSW 18:45:00 10° NNW
STARLINK-1048 4.1 18:37:05 10° SSW 18:39:42 25° SE 18:40:18 23° ESE
STARLINK-1021 4.1 18:37:19 10° SSW 18:39:55 25° SE 18:40:29 24° ESE
Abrixas rocket 2.3 18:37:08 10° WNW 18:40:04 61° SSW 18:41:54 20° SE
STARLINK-1049 4.0 18:37:55 10° SSW 18:40:34 26° SE 18:41:08 24° ESE
STARLINK-48 4.4 18:36:50 10° W 18:40:34 44° NNW 18:43:33 15° NE
Cosmos 1666 Rocket 3.6 18:36:20 10° S 18:40:43 58° E 18:45:08 10° NNE
NOSS 3-1 (A) 4.0 18:36:19 10° S 18:40:57 30° ESE 18:44:29 17° ENE
STARLINK-1051 4.0 18:38:33 10° SSW 18:41:10 26° SE 18:41:41 24° ESE
STARLINK-1019 4.0 18:38:49 10° SSW 18:41:27 26° SE 18:41:57 25° ESE
STARLINK-1012 4.0 18:39:45 10° SSW 18:42:25 26° SE 18:42:53 25° ESE
Lacrosse 4 Rocket 1.6 18:38:16 10° SW 18:42:25 73° WNW 18:46:44 10° NNE
STARLINK 1040 3.6 18:40:15 10° SSW 18:42:45 30° SE 18:43:08 28° ESE
Cosmos 1782 4.1 18:39:14 10° NNW 18:43:04 44° W 18:46:52 10° SSW
STARLINK-1026 3.9 18:41:22 10° SSW 18:44:04 28° SE 18:44:32 26° ESE
STARLINK-1013 3.9 18:42:20 10° SSW 18:45:03 28° SE 18:45:29 27° ESE
Meteor 1-10 Rocket 4.1 18:40:12 10° N 18:45:53 85° E 18:51:26 10° S
STARLINK-1009 3.8 18:43:15 10° SSW 18:45:59 29° SE 18:46:23 28° ESE
STARLINK-1015 3.8 18:44:03 10° SSW 18:46:50 30° SE 18:47:13 29° ESE
Cosmos 1633 3.8 18:47:02 10° SSW 18:50:27 43° WNW 18:53:56 10° N
CRYOSAT 2 4.4 18:45:43 10° SSE 18:50:30 57° E 18:55:19 10° N
Cosmos 1862 3.3 18:46:36 10° S 18:50:36 86° W 18:54:36 10° N
SL-4 R/B 2.2 18:46:23 10° NW 18:51:09 78° NNE 18:53:45 25° ESE
STARLINK-24 3.6 18:47:18 10° SW 18:51:16 61° SE 18:53:07 29° ENE
Cosmos 44 4.5 18:48:27 10° N 18:51:45 20° NE 18:52:10 20° NE
STARLINK-81 3.5 18:55:02 10° SW 18:59:00 65° SE 19:00:28 36° ENE
STARLINK-26 4.5 18:56:49 10° W 19:00:01 34° NNW 19:01:39 22° NNE
STARLINK-54 3.4 18:56:51 10° SW 19:00:50 73° SE 19:02:20 37° ENE
STARLINK-77 3.5 18:58:16 10° SW 19:02:15 69° SE 19:03:36 39° ENE
STARLINK-25 3.4 18:59:58 10° SW 19:03:58 71° SE 19:05:15 41° ENE
STARLINK-71 3.4 19:01:47 10° SW 19:05:48 81° SE 19:07:07 41° ENE
deb Kosmos-1763 4.4 19:03:03 10° NNW 19:06:42 64° WSW 19:10:20 10° S
STARLINK-79 3.4 19:03:16 10° SW 19:07:16 76° SE 19:08:26 44° ENE
Cosmos 1943 Rocket 2.1 19:02:01 10° SSW 19:07:34 67° ESE 19:13:06 10° NNE
STARLINK-78 3.4 19:04:50 10° SW 19:08:52 79° SE 19:09:58 46° ENE
MOS 1 4.3 19:03:28 10° SSE 19:08:59 56° ENE 19:14:30 10° N
STARLINK-75 3.5 19:06:47 10° WSW 19:10:11 60° NNW 19:11:02 43° NNE
STARLINK-57 3.4 19:06:39 10° SW 19:10:40 84° SE 19:11:45 47° ENE
STARLINK-49 3.4 19:08:10 10° SW 19:12:12 83° SE 19:13:10 50° ENE
STARLINK-33 3.6 19:09:29 10° WSW 19:12:40 50° NNW 19:13:17 43° N
STARLINK-27 3.4 19:09:53 10° SW 19:13:54 85° SE 19:14:49 52° ENE
STARLINK-22 3.3 19:11:17 10° WSW 19:14:42 69° NNW 19:15:12 57° NNE
STARLINK-66 3.7 19:11:40 10° WSW 19:14:50 48° NNW 19:15:23 42° N
STARLINK-74 3.4 19:11:31 10° SW 19:15:32 87° SE 19:16:23 55° ENE
STARLINK-41 3.4 19:12:44 10° WSW 19:16:08 62° NNW 19:16:38 53° NNE
STARLINK-55 3.8 19:13:23 10° WSW 19:16:33 45° NNW 19:17:01 41° N
CZ-4 R/B 4.1 19:13:39 10° SSW 19:16:59 22° W 19:20:19 10° NW
STARLINK-39 3.4 19:13:06 10° SW 19:17:07 90° SSW 19:17:55 56° NE
STARLINK-28 3.9 19:15:04 10° W 19:18:10 41° NNW 19:18:38 39° N
STARLINK-31 3.4 19:14:48 10° SW 19:18:50 87° NW 19:19:33 59° NE
Cosmos 1607 4.1 19:13:52 10° NW 19:20:10 77° WSW 19:25:53 13° SSE
Cosmos 1340 4.3 19:16:40 10° S 19:18:04 22° S 19:18:04 22° S
Cosmos 1470 Rocket 3.4 19:16:14 10° S 19:20:32 69° E 19:24:54 10° NNE
STARLINK-69 3.5 19:16:34 10° WSW 19:20:36 80° NNW 19:21:20 57° NE
STARLINK-21 3.5 19:18:09 10° WSW 19:22:10 82° NW 19:22:47 62° NE
STARLINK-45 3.6 19:20:02 10° WSW 19:24:02 74° NNW 19:24:40 59° NNE
STARLINK-70 3.6 19:21:36 10° WSW 19:25:37 74° NW 19:26:09 62° NNE
STARLINK-1014 3.9 19:22:23 10° SW 19:24:47 41° SSW 19:24:47 41° SSW
STARLINK-58 3.5 19:23:15 10° WSW 19:26:46 60° NNW 19:26:53 59° NNW
Cosmos 1812 3.4 19:22:59 10° NNW 19:26:46 53° W 19:30:31 10° S
STARLINK-76 3.5 19:23:07 10° WSW 19:27:09 76° NW 19:27:34 67° NNE
Cosmos 1862 Rocket 3.5 19:24:01 10° N 19:28:21 83° W 19:31:35 18° S
STARLINK-62 3.6 19:25:09 10° WSW 19:28:38 56° NNW 19:28:42 56° NNW
STARLINK-23 3.5 19:24:46 10° WSW 19:28:47 74° NW 19:29:08 68° N
Cosmos 1777 Rocket 3.9 19:24:22 10° NNW 19:29:41 88° WSW 19:32:51 25° SSE
STARLINK-34 3.7 19:26:24 10° WSW 19:29:52 55° NNW 19:29:52 55° NNW
STARLINK-32 3.6 19:26:27 10° WSW 19:30:28 72° NNW 19:30:45 68° N
STARLINK-40 3.6 19:28:05 10° WSW 19:32:05 70° NW 19:32:19 68° N
STARLINK-42 4.2 19:30:03 10° W 19:32:55 38° NW 19:32:55 38° NW
STARLINK-44 3.6 19:29:43 10° WSW 19:33:43 68° NNW 19:33:53 67° NNW
Cosmos 2369 Rocket 2.1 19:28:34 10° SSW 19:34:12 85° ESE 19:38:21 19° NNE
Lacrosse 5 rocket 3.8 19:31:21 10° NW 19:34:16 17° NNW 19:35:54 14° NNE
Cosmos 1464 Rocket 4.1 19:28:16 10° SSE 19:34:19 49° E 19:40:25 10° NNE
Cosmos 2285 Rocket 4.0 19:28:12 10° NNW 19:34:31 63° ENE 19:36:24 44° SE
STARLINK-37 3.8 19:31:26 10° WSW 19:35:25 63° NNW 19:35:33 63° NNW
NOSS 3-1 (C) 3.5 19:31:00 10° SW 19:36:27 70° NW 19:40:52 20° NNE
STARLINK-36 3.8 19:33:04 10° WSW 19:37:04 64° NNW 19:37:05 64° NNW
STARLINK-68 3.9 19:34:58 10° WSW 19:38:55 58° NNW 19:38:57 58° NNW
STARLINK-63 3.9 19:36:32 10° WSW 19:40:26 58° NW 19:40:26 58° NW
USA 267 3.2 19:38:57 46° E 19:40:37 59° SE 19:47:03 10° SSW
Meteor 1-27 Rocket 4.4 19:36:24 10° NNW 19:41:46 53° W 19:47:11 10° S
STARLINK-35 4.0 19:38:05 10° WSW 19:41:53 59° NW 19:41:53 59° NW
STARLINK-51 4.0 19:39:46 10° WSW 19:43:30 56° NW 19:43:30 56° NW
STARLINK-30 4.1 19:41:25 10° WSW 19:45:04 54° NW 19:45:04 54° NW
STARLINK-72 4.2 19:43:05 10° WSW 19:46:40 52° NW 19:46:40 52° NW
Cosmos 2263 4.1 19:41:55 10° SSW 19:47:41 80° ESE 19:49:08 52° NE
CZ-2C R/B 3.2 19:44:51 30° SSE 19:47:56 89° ENE 19:53:47 10° NNW
STARLINK-50 4.3 19:44:45 10° WSW 19:48:15 50° WNW 19:48:15 50° WNW
H-2A R/B 2.2 19:45:44 21° S 19:49:20 74° WSW 19:54:46 10° NNW
STARLINK-59 4.4 19:46:31 10° WSW 19:49:58 47° NW 19:49:58 47° NW
STARLINK-56 4.5 19:48:05 10° WSW 19:51:25 46° WNW 19:51:25 46° WNW
SL-27 R/B 4.5 19:51:39 10° NW 19:53:32 26° WNW 19:53:32 26° WNW
SJ 16-02 4.0 20:05:12 10° N 20:05:16 10° N 20:05:16 10° N
USA 234 3.6 20:14:46 50° NNE 20:14:46 50° NNE 20:20:51 10° NW
ARGOS 3.9 20:14:27 35° SSW 20:16:19 50° W 20:21:36 10° NNW
Resurs 01 Rocket 4.4 20:33:50 11° NNW 20:33:50 11° NNW 20:33:58 10° NNW
NOSS 3-1 (A) 4.1 20:26:05 10° WSW 20:31:27 48° NW 20:32:01 47° NNW
Cosmos 1943 Rocket 4.4 20:47:38 10° W 20:51:49 21° NW 20:55:03 13° N
